DW1970 Bodega Bay CA US current weather conditions

sailwx.info

Wind from 268 at 3 knots

Air temperature 15.6° C
Dewpoint 15.6° C

Last reported at 2017-Nov-23 22:04 UTC.
Time now 2017-Nov-23 22:32 UTC

Location: N 38°23' W 123°04'.
View on Google Maps.

See reports from other nearby stations

  
Tides and Currents Weather Stations Pressure Air Temp Water Temp Dewpoint Dewpoint Depression Visibility Wind Speed Wind Dir Waves Ship Positions
date/time (UTC)wind fromknots sea level pressurealtimeterstation pressurevisibilityair tempwater tempwave heightnotes
2017-Nov-23 22:04 268 3 15.6
2017-Nov-23 21:49 273 16.1
2017-Nov-23 21:18 306 0 16.1
2017-Nov-23 21:03 110 16.1
2017-Nov-23 20:33 165 15.0
2017-Nov-23 20:18 165 0 15.0
2017-Nov-23 20:03 165 15.6
2017-Nov-23 19:48 184 15.6
2017-Nov-23 19:18 121 16.7
2017-Nov-23 19:03 120 17.8
2017-Nov-23 18:48 119 17.8
2017-Nov-23 18:32 123 17.2
2017-Nov-23 18:17 117 16.1
2017-Nov-23 18:02 136 16.1
2017-Nov-23 17:47 136 17.2
2017-Nov-23 17:32 136 17.2
2017-Nov-23 17:17 136 17.2
2017-Nov-23 17:02 136 17.2
2017-Nov-23 16:47 136 16.7
2017-Nov-23 16:17 340 17.8
2017-Nov-23 16:02 340 17.8
2017-Nov-23 15:47 337 16.7
2017-Nov-23 15:32 325 1 15.6
2017-Nov-23 15:17 020 14.4
2017-Nov-23 15:02 020 14.4
2017-Nov-23 14:46 020 15.0
2017-Nov-23 14:31 020 14.4
2017-Nov-23 14:16 020 13.9
2017-Nov-23 14:01 020 14.4
2017-Nov-23 13:46 020 15.0
2017-Nov-23 13:31 020 15.0
2017-Nov-23 13:16 020 15.0
2017-Nov-23 13:01 020 15.0
2017-Nov-23 12:46 020 15.0
2017-Nov-23 12:31 020 14.4
2017-Nov-23 12:16 020 15.0
2017-Nov-23 12:01 020 15.0
2017-Nov-23 11:45 020 15.0
2017-Nov-23 11:31 017 14.4
2017-Nov-23 11:15 017 1 13.3
2017-Nov-23 11:00 308 13.3
2017-Nov-23 10:45 308 0 13.3
2017-Nov-23 10:30 308 1 13.3
2017-Nov-23 10:00 313 14.4
2017-Nov-23 09:45 313 2 14.4
2017-Nov-23 09:30 338 0 16.1
2017-Nov-23 09:15 335 2 15.6
2017-Nov-23 09:00 017 17.2
2017-Nov-23 08:30 069 6 17.2
2017-Nov-23 08:15 036 2 16.7
2017-Nov-23 08:00 073 3 16.7
2017-Nov-23 07:44 025 1 16.7
2017-Nov-23 07:29 053 2 16.1
2017-Nov-23 07:15 333 1 16.1
2017-Nov-23 06:59 327 0 15.6
2017-Nov-23 06:44 313 16.1
2017-Nov-23 06:29 313 15.0
2017-Nov-23 06:14 313 1 15.6
2017-Nov-23 05:59 305 14.4
2017-Nov-23 05:44 305 13.9
2017-Nov-23 05:29 305 13.9
2017-Nov-23 05:14 329 15.6
2017-Nov-23 04:59 355 16.1
2017-Nov-23 04:44 355 0 15.6
2017-Nov-23 04:29 355 15.6
2017-Nov-23 04:14 355 16.1
2017-Nov-23 03:58 355 16.7
2017-Nov-23 03:45 355 16.1
2017-Nov-23 03:36 355 1 16.1
2017-Nov-23 03:20 355 1 15.6
2017-Nov-23 02:58 284 15.6
2017-Nov-23 02:43 284 0 15.6
2017-Nov-23 02:28 284 0 15.6
2017-Nov-23 02:13 284 16.1
2017-Nov-23 01:58 284 15.6
2017-Nov-23 01:43 284 15.6
2017-Nov-23 01:28 283 1 15.0
2017-Nov-23 01:13 279 0 15.0
2017-Nov-23 00:58 279 15.6
2017-Nov-23 00:43 279 0 16.1
2017-Nov-23 00:27 279 2 16.1
2017-Nov-23 00:12 284 2 16.1
2017-Nov-22 23:57 296 5 16.7
2017-Nov-22 23:43 289 0 18.3
2017-Nov-22 23:27 346 0 18.3
2017-Nov-22 23:12 051 0 20.6
2017-Nov-22 22:57 080 2 21.1
2017-Nov-22 22:42 194 19.4
2017-Nov-22 22:27 194 18.9
2017-Nov-22 22:12 194 0 20.0
2017-Nov-22 21:42 287 1 19.4
2017-Nov-22 21:27 081 3 20.0
2017-Nov-22 21:11 078 5 20.0
2017-Nov-22 20:56 091 7 19.4
2017-Nov-22 20:41 090 3 20.0
2017-Nov-22 20:26 334 1 18.9
2017-Nov-22 20:11 020 4 19.4
2017-Nov-22 19:56 057 5 19.4
2017-Nov-22 19:42 057 2 19.4
2017-Nov-22 19:26 076 2 19.4
2017-Nov-22 19:11 070 1 18.9
2017-Nov-22 18:56 071 1 18.3
2017-Nov-22 18:40 360 17.2
2017-Nov-22 18:25 291 0 16.7
2017-Nov-22 17:55 034 3 17.8
2017-Nov-22 17:40 061 5 17.2
2017-Nov-22 17:10 030 10 16.7
2017-Nov-22 16:55 071 9 16.7
2017-Nov-22 16:40 071 10 16.1
2017-Nov-22 16:25 071 9 16.7
2017-Nov-22 16:10 086 9 16.1
2017-Nov-22 15:55 087 6 15.6
2017-Nov-22 15:39 071 2 15.6
2017-Nov-22 15:09 076 10 15.6
2017-Nov-22 14:54 089 11 15.0
2017-Nov-22 14:39 084 9 15.6
2017-Nov-22 14:24 087 9 15.6
2017-Nov-22 14:09 079 10 15.6
2017-Nov-22 13:54 100 11 15.6
2017-Nov-22 13:39 092 8 15.6
2017-Nov-22 13:24 055 6 15.6
2017-Nov-22 13:09 096 11 16.1
2017-Nov-22 12:54 077 12 16.1
2017-Nov-22 12:39 105 13 16.1
2017-Nov-22 12:24 090 13 16.1
2017-Nov-22 11:53 046 11 16.1
2017-Nov-22 11:38 074 11 16.1
2017-Nov-22 11:23 092 11 15.6
2017-Nov-22 11:08 078 13 16.1
2017-Nov-22 10:53 091 12 16.1
2017-Nov-22 10:38 080 11 16.7
2017-Nov-22 10:23 079 11 15.6
2017-Nov-22 10:08 081 11 15.6
2017-Nov-22 09:53 044 11 16.1
2017-Nov-22 09:38 076 8 16.1
2017-Nov-22 09:23 096 9 15.6
2017-Nov-22 08:52 093 6 15.6
2017-Nov-22 08:37 059 4 15.0
2017-Nov-22 08:22 011 5 15.6
2017-Nov-22 08:07 040 6 15.6
2017-Nov-22 07:52 065 5 16.1
2017-Nov-22 07:37 075 5 16.1
2017-Nov-22 07:22 051 5 16.1
2017-Nov-22 07:07 042 4 16.1
2017-Nov-22 06:52 057 4 16.7
2017-Nov-22 06:37 112 6 16.7
2017-Nov-22 06:22 049 8 16.7
2017-Nov-22 06:07 084 8 16.7
2017-Nov-22 05:52 082 6 16.7
2017-Nov-22 05:37 081 6 16.7
2017-Nov-22 05:21 082 7 16.7
2017-Nov-22 05:06 034 7 16.7
2017-Nov-22 04:52 064 8 16.7
2017-Nov-22 04:36 051 6 16.7
2017-Nov-22 04:21 089 9 17.2
2017-Nov-22 04:06 086 9 17.2
2017-Nov-22 03:51 077 8 17.2
2017-Nov-22 03:36 076 7 17.2
2017-Nov-22 03:21 053 6 17.8
2017-Nov-22 03:06 090 7 18.3
2017-Nov-22 02:51 051 6 18.3
2017-Nov-22 02:36 076 8 18.3
2017-Nov-22 02:21 069 8 18.3
2017-Nov-22 02:06 096 6 18.3
2017-Nov-22 01:50 086 8 18.3
2017-Nov-22 01:35 052 6 17.8
2017-Nov-22 01:20 082 7 18.3
2017-Nov-22 01:05 061 7 18.3
2017-Nov-22 00:50 067 6 18.3
2017-Nov-22 00:35 057 6 18.9
2017-Nov-22 00:20 064 5 18.9
2017-Nov-21 23:19 058 5 20.0
2017-Nov-21 23:05 056 6 20.0
2017-Nov-21 22:49 090 6 20.0
2017-Nov-21 22:34 064 7 20.0
2017-Nov-21 22:19 059 8 20.0
2017-Nov-21 22:04 084 11 19.4